Flag for Czech Republic Weather past 2 weeks in Prague, Czech Republic

Now
46 °F

Passing clouds.


Feels Like: 46 °F
Forecast: 35 / 49 °F
Wind: 2 mph from North

Location: Prague Ruzyne Airport


UV Index: 0 (Low)

Visibility: N/A


Pressure: 30.30 "Hg

Humidity: 40%

Dew point: 23 °F

Location of PragueLocation

Historic Weather in Prague

°F

Prague temperature yesterday

Maximum temperature yesterday: 50 °F (at 3:00 PM)
Minimum temperature yesterday: 37 °F (at 1:00 AM)
Average temperature yesterday: 42 °F

Past Weeks' High & Low Weather Summary

 TemperatureHumidityPressure
High70 °F (Apr 3, 4:00 PM)100% (Apr 6, 5:30 AM)30.36 "Hg (Apr 6, 5:30 AM)
Low27 °F (Apr 17, 5:30 AM)37% (Apr 2, 3:30 PM)29.68 "Hg (Apr 3, 3:00 PM)
Average49 °F68%29.99 "Hg
* Reported Apr 2 10:00 AM — Apr 17 10:30 AM, Prague, Weather by CustomWeather, © 2014

Note: Actual official high and low records may vary slightly from our data, if they occured in-between our weather recording intervals... More about our weather records

Advertising

Historic Weather Conditions — Data for Previous 24 hours

 ConditionsComfort  
Time TempWeatherWind HumidityBarometerVisibility
10:30 AM
Apr 17
46 °FPassing clouds.2 mph46%30.30 "HgN/A
10:00 AM45 °FPassing clouds.2 mph49%30.30 "HgN/A
9:30 AM45 °FPassing clouds.2 mph53%30.33 "HgN/A
9:00 AM41 °FSunny.2 mph61%30.33 "Hg10 mi
8:30 AM39 °FSunny.2 mph65%30.33 "Hg10 mi
8:00 AM36 °FSunny.No wind75%30.33 "Hg10 mi
7:30 AM32 °FSunny.3 mph80%30.33 "Hg10 mi
7:00 AM28 °FClear.3 mph86%30.33 "Hg10 mi
6:30 AM27 °FClear.3 mph86%30.33 "Hg10 mi
6:00 AM27 °FClear.5 mph86%30.33 "Hg10 mi
5:30 AM27 °FClear.5 mph80%30.33 "Hg10 mi
5:00 AM28 °FClear.3 mph80%30.33 "Hg10 mi
4:30 AM32 °FClear.1 mph75%30.33 "Hg10 mi
4:00 AM30 °FClear.2 mph75%30.33 "Hg10 mi
3:30 AM30 °FClear.2 mph75%30.36 "Hg10 mi
3:00 AM34 °FClear.2 mph65%30.36 "Hg10 mi
2:30 AM32 °FClear.5 mph75%30.36 "Hg10 mi
2:00 AM30 °FClear.5 mph75%30.36 "Hg10 mi
1:30 AM34 °FClear.3 mph70%30.36 "Hg10 mi
1:00 AM34 °FClear.1 mph65%30.36 "Hg10 mi
12:30 AM36 °FClear.5 mph65%30.36 "Hg10 mi
12:00 AM36 °FClear.5 mph60%30.36 "Hg10 mi
11:00 PM
Apr 16
39 °FClear.6 mph56%30.36 "Hg10 mi
10:30 PM37 °FClear.6 mph60%30.36 "Hg10 mi
10:00 PM37 °FClear.6 mph60%30.36 "Hg10 mi
9:30 PM39 °FClear.3 mph56%30.36 "Hg10 mi
9:00 PM39 °FClear.5 mph56%30.36 "Hg10 mi
8:30 PM41 °FSunny.8 mph53%30.36 "Hg10 mi
8:00 PM43 °FSunny.8 mph49%30.36 "Hg10 mi
7:30 PM45 °FSunny.10 mph42%30.36 "Hg10 mi
7:00 PM46 °FSunny.15 mph40%30.33 "Hg10 mi
6:30 PM48 °FSunny.14 mph40%30.33 "Hg10 mi
6:00 PM48 °FSunny.15 mph40%30.33 "Hg10 mi
5:30 PM50 °FPassing clouds.15 mph37%30.33 "HgN/A
5:00 PM46 °FSunny.16 mph40%30.33 "Hg10 mi
4:30 PM48 °FSunny.17 mph37%30.33 "Hg10 mi
4:00 PM48 °FSunny.16 mph37%30.33 "Hg10 mi
3:30 PM50 °FSunny.14 mph37%30.33 "Hg10 mi
3:00 PM50 °FSunny.15 mph40%30.33 "Hg10 mi
2:30 PM48 °FSunny.16 mph40%30.33 "Hg10 mi
2:00 PM48 °FScattered clouds.14 mph46%30.33 "HgN/A
1:30 PM48 °FScattered clouds.13 mph46%30.33 "HgN/A
1:00 PM46 °FScattered clouds.13 mph53%30.36 "HgN/A
12:30 PM46 °FScattered clouds.14 mph57%30.36 "HgN/A
12:00 PM46 °FScattered clouds.16 mph66%30.36 "HgN/A
11:30 AM43 °FScattered clouds.13 mph71%30.36 "HgN/A
11:00 AM45 °FScattered clouds.16 mph71%30.36 "HgN/A
Weather by CustomWeather, © 2014

See weather overview